Location: Fort Hill
(40.8793°N, 73.4065°W)
Time: 04:45:08
(UTC+00:00)

Daily predictions for brighter satellites

Satellite Brightness Start Highest point End
(mag) Time Altitude Azimuth Time Altitude Azimuth Time Altitude Azimuth
ISS -0.7 00:01:39 10° NW 00:02:04 13° NW 00:02:04 13° NW
Cosmos 2266 Rocket 4.2 00:00:20 10° N 00:06:42 74° W 00:13:05 10° S
SL-16 R/B 3.5 00:02:25 10° NNW 00:05:05 28° N 00:05:05 28° N
Cosmos 2082 Rocket 4.1 00:04:00 10° WSW 00:08:38 25° NW 00:11:58 15° N
ATLAS 5 CENTAUR R/B 4.4 00:06:55 10° NW 00:08:17 16° NNW 00:08:17 16° NNW
CZ-2C R/B 4.1 00:19:00 10° SW 00:19:38 13° SW 00:19:38 13° SW
CENTAUR R/B 3.6 08:51:33 37° NNE 08:51:33 37° NNE 08:55:41 10° NE
Cosmos 1943 Rocket 4.0 08:53:41 23° NNE 08:53:41 23° NNE 08:55:42 10° NNE
NOSS 3-2 (C) 3.9 09:13:26 49° NNE 09:13:26 49° NNE 09:18:02 10° NNE
Cosmos 2344 3.8 09:14:06 48° NNW 09:14:06 48° NNW 09:20:19 10° NNE
Cosmos 1812 4.5 09:28:44 29° ENE 09:29:11 30° ENE 09:32:35 10° SE
Tsikada Rocket 3.8 09:26:43 10° S 09:32:54 81° W 09:39:13 10° N
Meteor 2-3 Rocket 3.9 09:40:23 54° NNW 09:40:23 54° NNW 09:44:56 10° N
USA 238 DEB 3.7 09:40:07 52° NW 09:40:07 52° NW 09:46:28 10° NNE
USA 238 3.7 09:40:11 52° NW 09:40:11 52° NW 09:46:34 10° NNE
BREEZE-M DEB (TANK) 3.1 09:43:04 65° NW 09:43:47 83° NNE 09:57:04 10° ESE
USA 215 4.0 09:41:10 10° E 09:47:18 45° NNE 09:50:34 26° NNW
Cosmos 1241 Rocket 4.3 09:49:45 53° WNW 09:51:03 68° WSW 09:57:10 10° SSE
Meteor 1-31 Rocket 3.7 09:48:29 10° NNE 09:52:16 47° E 09:56:03 10° S
Cosmos 921 Rocket 3.0 09:53:48 65° N 09:54:27 86° ENE 09:58:55 10° SSE
Cosmos 1782 4.0 09:57:34 31° S 09:57:34 31° S 09:59:42 10° S
Cosmos 2263 4.2 09:52:36 10° SSW 09:58:16 83° ESE 10:04:02 10° NNE
Meteor 1-26 Rocket 4.2 09:56:03 31° NNW 09:58:56 65° W 10:04:35 10° S
H-2A R/B 2.6 09:56:21 10° NNE 10:00:05 86° ESE 10:03:51 10° SSW
Cosmos 1862 3.5 09:58:19 10° S 10:02:13 68° E 10:06:09 10° NNE
Cosmos 2208 Rocket 4.3 10:02:49 45° WSW 10:02:49 45° WSW 10:07:48 10° S
Cosmos 1867 4.0 10:03:11 40° WSW 10:03:11 40° WSW 10:08:02 10° S
Gbstr 26 Del rocket 4.2 10:04:20 25° SSW 10:04:20 25° SSW 10:07:02 10° SSE
Okean 3 Rocket 3.9 09:59:52 10° S 10:04:21 68° E 10:08:53 10° NNE
Cosmos 1503 Rocket 4.2 10:03:08 10° S 10:08:21 71° ESE 10:13:39 10° NNE
Cosmos 1151 Rocket 3.0 10:05:51 20° N 10:08:53 84° E 10:13:14 10° S
Cosmos 2369 Rocket 2.1 10:05:54 23° SW 10:09:18 58° WNW 10:14:51 10° NNE
SL-19 R/B 4.2 10:06:22 10° S 10:11:56 66° WSW 10:16:13 17° NNW
Cosmos 1766 Rocket 3.4 10:09:05 10° S 10:13:24 85° W 10:17:46 10° N
SJ-12 3.8 10:09:39 10° N 10:13:46 65° WNW 10:17:51 10° SSW
Meteor 2-13 Rocket 4.4 10:07:57 10° SSW 10:13:57 57° W 10:19:57 10° N
Cosmos 1486 Rocket 4.0 10:10:33 10° SSW 10:15:45 57° WNW 10:20:59 10° NNE
BREEZE M DEB (TANK) 4.2 10:21:35 22° NNW 10:21:35 22° NNW 10:23:43 10° NE
Cosmos 1328 Rocket 3.5 10:20:58 10° N 10:25:22 89° E 10:29:43 10° S
Cosmos 1656 Rocket 3.6 10:20:26 10° SW 10:25:44 58° WNW 10:31:07 10° NNE
Iridium 2 3.9 10:22:39 10° SSW 10:26:15 43° W 10:26:47 40° WNW
CZ-4B R/B 4.2 10:24:43 10° NNE 10:28:03 36° E 10:31:24 10° SSE
DNEPR-1 R/B 4.0 10:27:08 21° NNW 10:30:33 86° ENE 10:36:29 10° SSE
COSMO-SKYMED 1 2.7 10:27:57 10° S 10:32:11 53° W 10:35:30 16° NNW
CZ-2C R/B 2.7 10:28:13 10° S 10:33:37 58° W 10:38:57 10° NNW
Cosmos 1943 Rocket 3.6 10:35:16 18° NW 10:35:16 18° NW 10:38:17 10° N
Envisat 3.3 10:35:25 10° N 10:40:10 41° WNW 10:44:54 10° SW
CENTAUR R/B 3.7 10:38:45 20° NW 10:40:39 22° NNW 10:46:08 10° NNE
Cosmos 2098 Rocket 3.7 10:42:13 10° SW 10:45:38 30° WNW 10:49:51 10° N
Cosmos 1408 Rocket 3.4 10:43:19 10° S 10:47:36 78° W 10:51:56 10° N
DELTA 2 R/B (1) 3.7 10:47:14 15° WSW 10:51:52 76° S 10:57:25 10° E
Cosmos 1340 Rocket 3.4 10:49:09 10° S 10:53:01 61° E 10:56:57 10° NNE
NOAA 12 4.4 10:48:11 10° NNE 10:53:28 72° ESE 10:58:40 10° S
Cosmos 2279 Rocket 4.2 10:48:32 10° NNW 10:54:26 47° W 11:00:18 10° SSW
Cosmos 1174 3.5 10:52:21 10° SSW 10:55:18 64° ESE 10:58:19 10° NE
Cosmos 1743 Rocket 4.0 10:51:36 10° S 10:55:57 67° E 11:00:17 10° NNE
SMAP 4.1 10:52:11 10° NNE 10:56:44 51° E 11:01:14 10° S
NOAA 11 4.2 10:55:39 10° N 11:01:04 63° WNW 11:06:28 10° SSW
Nadezhda 4 Rocket 3.9 10:55:39 10° S 11:01:48 77° W 11:08:03 10° N
Meteor 1-27 Rocket 3.8 10:57:18 10° N 11:02:59 89° ENE 11:08:45 10° S
CZ-4B R/B 3.3 11:00:08 10° SE 11:03:03 29° ENE 11:05:58 10° N
DMSP B5D1-3 4.5 10:58:49 10° S 11:03:57 79° WSW 11:09:08 10° NNW
Cosmos 1812 4.3 11:03:50 16° WNW 11:04:38 17° W 11:07:06 10° SW
Meteor 2-15 Rocket 4.4 10:59:30 10° N 11:05:36 77° W 11:11:38 10° S
Cosmos 1515 Rocket 3.6 11:02:51 10° NNW 11:07:09 58° W 11:11:24 10° S
Cosmos 1939 Rocket 2.8 11:03:40 10° NNE 11:07:37 84° ESE 11:11:29 10° S
ATLAS 3B R/B 2.8 11:01:34 10° SSW 11:08:01 78° ESE 11:14:49 10° NE
Cosmos 1354 Rocket 4.4 11:04:24 10° SW 11:09:20 40° WNW 11:14:20 10° N
SJ 16-02 1.2 11:05:49 10° SSW 11:10:11 74° WNW 11:14:35 10° NNE
Meteor PRIRODA 3.8 11:08:04 10° N 11:11:34 47° WNW 11:15:03 10° SSW
ADEOS 3.9 11:09:26 10° N 11:14:20 41° WNW 11:19:11 10° SW
Cosmos 1515 4.2 11:10:41 10° N 11:14:27 62° E 11:18:12 10° SSE
Cosmos 1092 Rocket 4.2 11:11:11 10° S 11:17:25 83° E 11:23:45 10° N
CZ-4C R/B 4.2 11:17:15 10° SW 11:19:35 19° W 11:21:55 10° NW
ATLAS 5 CENTAUR R/B 1.3 11:18:24 10° SW 11:22:07 58° NW 11:26:16 10° NNE
SL-8 R/B 3.7 11:17:47 10° WNW 11:22:32 82° SSW 11:27:18 10° SE
Cosmos 1500 Rocket 3.7 11:20:02 10° SSW 11:24:23 54° W 11:28:47 10° N
SL-4 R/B 4.2 11:22:57 10° SSW 11:25:59 27° SE 11:29:10 10° ENE
CZ-2C R/B 3.3 11:22:26 10° N 11:27:04 44° WNW 11:31:53 10° SW
Geosat FO 4.4 11:25:01 10° SSE 11:28:20 74° WSW 11:31:39 10° NNW
Okean 1 4.3 11:25:27 10° N 11:29:18 50° E 11:33:08 10° SSE
USA 215 3.5 11:23:44 10° SSE 11:30:10 60° SW 11:36:37 10° NW
Meteor 1-25 Rocket 4.2 11:25:30 10° S 11:31:08 85° W 11:36:45 10° N
Sich 1 3.1 11:30:34 10° S 11:34:51 86° E 11:39:08 10° N
COSMOS 2487 2.5 11:31:41 10° NNW 11:35:03 74° ENE 11:38:22 10° SSE
Cosmos 1805 Rocket 3.5 11:31:51 10° SSW 11:36:13 71° W 11:40:36 10° N
